Time,TemperatureF,DewpointF,PressureIn,WindDirection,WindDirectionDegrees,WindSpeedMPH,WindSpeedGustMPH,Humidity,HourlyPrecipIn,Conditions,Clouds,dailyrainin,SoftwareType,DateUTC
2013-04-08 00:00:00,55.6,42.4,29.76,NE,42,3.0,5.0,61,0.00,CLR,,0.00,WeatherDisplay:10.37,2013-04-07 22:00:00,
2013-04-08 00:15:00,55.1,41.9,29.76,NNE,24,5.0,7.0,61,0.00,CLR,,0.00,WeatherDisplay:10.37,2013-04-07 22:15:00,
2013-04-08 00:20:00,55.0,41.8,29.76,NE,34,5.0,9.0,61,0.00,CLR,,0.00,WeatherDisplay:10.37,2013-04-07 22:20:00,
2013-04-08 00:30:00,54.9,41.7,29.76,NE,39,6.0,7.0,61,0.00,CLR,,0.00,WeatherDisplay:10.37,2013-04-07 22:30:00,
2013-04-08 00:40:00,54.8,41.6,29.77,NE,38,5.0,7.0,61,0.00,CLR,,0.00,WeatherDisplay:10.37,2013-04-07 22:40:00,
2013-04-08 00:50:00,54.5,41.3,29.76,NE,38,5.0,6.0,61,0.00,CLR,,0.00,WeatherDisplay:10.37,2013-04-07 22:50:00,
2013-04-08 01:00:00,54.3,41.6,29.77,NE,40,2.0,7.0,62,0.00,CLR,,0.00,WeatherDisplay:10.37,2013-04-07 23:00:00,
2013-04-08 01:10:00,54.1,41.4,29.76,NE,44,2.0,8.0,62,0.00,CLR,,0.00,WeatherDisplay:10.37,2013-04-07 23:10:00,
2013-04-08 01:20:00,53.9,41.2,29.77,NE,39,2.0,9.0,62,0.00,CLR,,0.00,WeatherDisplay:10.37,2013-04-07 23:20:00,
2013-04-08 01:30:00,53.7,40.5,29.77,NE,42,5.0,8.0,61,0.00,CLR,,0.00,WeatherDisplay:10.37,2013-04-07 23:30:00,
2013-04-08 01:40:00,53.6,40.5,29.77,NE,54,5.0,8.0,61,0.00,CLR,,0.00,WeatherDisplay:10.37,2013-04-07 23:40:00,
2013-04-08 01:50:00,53.6,40.5,29.77,NE,43,5.0,7.0,61,0.00,CLR,,0.00,WeatherDisplay:10.37,2013-04-07 23:50:00,
2013-04-08 02:00:00,53.5,40.8,29.77,NNE,31,3.0,7.0,62,0.00,CLR,,0.00,WeatherDisplay:10.37,2013-04-08 00:00:00,
2013-04-08 02:11:00,53.7,41.0,29.77,NE,37,2.0,7.0,62,0.00,CLR,,0.00,WeatherDisplay:10.37,2013-04-08 00:11:00,
2013-04-08 02:21:00,53.6,40.5,29.77,NNE,30,6.0,8.0,61,0.00,CLR,,0.00,WeatherDisplay:10.37,2013-04-08 00:21:00,
2013-04-08 02:30:00,53.6,40.4,29.77,NE,43,6.0,8.0,61,0.00,CLR,,0.00,WeatherDisplay:10.37,2013-04-08 00:30:00,
2013-04-08 02:40:00,53.3,39.8,29.77,NE,40,5.0,7.0,60,0.00,CLR,,0.00,WeatherDisplay:10.37,2013-04-08 00:40:00,
2013-04-08 02:51:00,53.0,39.9,29.76,NNE,24,3.0,6.0,61,0.00,CLR,,0.00,WeatherDisplay:10.37,2013-04-08 00:51:00,
2013-04-08 03:00:00,53.1,39.6,29.77,NE,44,3.0,8.0,60,0.00,CLR,,0.00,WeatherDisplay:10.37,2013-04-08 01:00:00,
2013-04-08 03:10:00,53.0,39.5,29.77,NNE,23,5.0,7.0,60,0.00,CLR,,0.00,WeatherDisplay:10.37,2013-04-08 01:10:00,
2013-04-08 03:20:00,52.8,39.3,29.77,NNE,28,5.0,7.0,60,0.00,CLR,,0.00,WeatherDisplay:10.37,2013-04-08 01:20:00,
2013-04-08 03:31:00,52.6,39.1,29.77,NNE,31,6.0,10.0,60,0.00,CLR,,0.00,WeatherDisplay:10.37,2013-04-08 01:31:00,
2013-04-08 03:41:00,52.5,39.0,29.77,NE,37,6.0,9.0,60,0.00,CLR,,0.00,WeatherDisplay:10.37,2013-04-08 01:41:00,
2013-04-08 03:50:00,52.3,38.8,29.77,NNE,25,5.0,10.0,60,0.00,CLR,,0.00,WeatherDisplay:10.37,2013-04-08 01:50:00,
2013-04-08 04:00:00,52.3,39.6,29.77,NNE,28,5.0,8.0,62,0.00,CLR,,0.00,WeatherDisplay:10.37,2013-04-08 02:00:00,
2013-04-08 04:11:00,52.0,38.5,29.77,NE,49,3.0,7.0,60,0.00,CLR,,0.00,WeatherDisplay:10.37,2013-04-08 02:11:00,
2013-04-08 04:21:00,51.8,38.4,29.77,NE,37,5.0,8.0,60,0.00,CLR,,0.00,WeatherDisplay:10.37,2013-04-08 02:21:00,
2013-04-08 04:30:00,51.7,37.8,29.77,NNE,23,3.0,6.0,59,0.00,CLR,,0.00,WeatherDisplay:10.37,2013-04-08 02:30:00,
2013-04-08 04:40:00,51.9,38.0,29.77,NE,47,3.0,7.0,59,0.00,CLR,,0.00,WeatherDisplay:10.37,2013-04-08 02:40:00,
2013-04-08 04:50:00,51.7,37.8,29.77,NE,42,3.0,5.0,59,0.00,CLR,,0.00,WeatherDisplay:10.37,2013-04-08 02:50:00,
2013-04-08 05:00:00,51.7,37.8,29.77,NE,37,3.0,6.0,59,0.00,CLR,,0.00,WeatherDisplay:10.37,2013-04-08 03:00:00,
2013-04-08 05:10:00,51.8,37.5,29.78,NE,36,2.0,6.0,58,0.00,CLR,,0.00,WeatherDisplay:10.37,2013-04-08 03:10:00,
2013-04-08 05:20:00,51.9,37.6,29.77,NE,37,5.0,7.0,58,0.00,CLR,,0.00,WeatherDisplay:10.37,2013-04-08 03:20:00,
2013-04-08 05:30:00,52.1,37.3,29.77,NE,50,6.0,8.0,57,0.00,CLR,,0.00,WeatherDisplay:10.37,2013-04-08 03:30:00,
2013-04-08 05:40:00,52.1,37.3,29.77,NE,50,3.0,6.0,57,0.00,CLR,,0.00,WeatherDisplay:10.37,2013-04-08 03:40:00,
2013-04-08 05:51:00,51.9,37.1,29.77,NE,52,5.0,8.0,57,0.00,CLR,,0.00,WeatherDisplay:10.37,2013-04-08 03:51:00,
2013-04-08 06:00:00,51.4,37.1,29.78,ENE,57,5.0,7.0,58,0.00,CLR,,0.00,WeatherDisplay:10.37,2013-04-08 04:00:00,
2013-04-08 06:05:00,51.2,37.0,29.78,NE,52,3.0,6.0,58,0.00,CLR,,0.00,WeatherDisplay:10.37,2013-04-08 04:05:00,
2013-04-08 06:10:00,51.2,36.9,29.78,NE,51,3.0,7.0,58,0.00,CLR,,0.00,WeatherDisplay:10.37,2013-04-08 04:10:00,
2013-04-08 06:15:00,51.1,36.8,29.78,NE,37,3.0,7.0,58,0.00,CLR,,0.00,WeatherDisplay:10.37,2013-04-08 04:15:00,
2013-04-08 06:20:00,51.2,36.5,29.78,NE,41,3.0,7.0,57,0.00,CLR,,0.00,WeatherDisplay:10.37,2013-04-08 04:20:00,
2013-04-08 06:30:00,51.2,36.5,29.78,NE,50,3.0,8.0,57,0.00,CLR,,0.00,WeatherDisplay:10.37,2013-04-08 04:30:00,
2013-04-08 06:40:00,51.2,36.5,29.79,NE,47,3.0,5.0,57,0.00,CLR,,0.00,WeatherDisplay:10.37,2013-04-08 04:40:00,
2013-04-08 06:50:00,51.4,36.2,29.79,NE,36,3.0,5.0,56,0.00,CLR,,0.00,WeatherDisplay:10.37,2013-04-08 04:50:00,
2013-04-08 06:55:00,51.4,36.2,29.79,NE,42,2.0,5.0,56,0.00,CLR,,0.00,WeatherDisplay:10.37,2013-04-08 04:55:00,
2013-04-08 07:00:00,51.5,36.3,29.79,NE,54,3.0,6.0,56,0.00,CLR,,0.00,WeatherDisplay:10.37,2013-04-08 05:00:00,
2013-04-08 07:10:00,51.5,36.8,29.80,NE,39,3.0,8.0,57,0.00,CLR,,0.00,WeatherDisplay:10.37,2013-04-08 05:10:00,
2013-04-08 07:20:00,51.5,36.8,29.80,NE,53,5.0,8.0,57,0.00,CLR,,0.00,WeatherDisplay:10.37,2013-04-08 05:20:00,
2013-04-08 07:30:00,51.5,36.3,29.81,NE,42,2.0,6.0,56,0.00,CLR,,0.00,WeatherDisplay:10.37,2013-04-08 05:30:00,
2013-04-08 07:41:00,51.7,36.1,29.81,NNE,31,3.0,7.0,55,0.00,CLR,,0.00,WeatherDisplay:10.37,2013-04-08 05:41:00,
2013-04-08 07:50:00,52.1,36.0,29.81,NE,41,5.0,8.0,54,0.00,CLR,,0.00,WeatherDisplay:10.37,2013-04-08 05:50:00,
2013-04-08 08:00:00,52.6,35.9,29.81,NE,44,5.0,7.0,53,0.00,CLR,,0.00,WeatherDisplay:10.37,2013-04-08 06:00:00,
2013-04-08 08:10:00,52.8,36.1,29.82,NE,39,5.0,8.0,53,0.00,CLR,,0.00,WeatherDisplay:10.37,2013-04-08 06:10:00,
2013-04-08 08:20:00,52.7,36.0,29.82,NNE,30,5.0,8.0,53,0.00,CLR,,0.00,WeatherDisplay:10.37,2013-04-08 06:20:00,
2013-04-08 08:30:00,52.9,36.2,29.82,NE,50,5.0,8.0,53,0.00,CLR,,0.00,WeatherDisplay:10.37,2013-04-08 06:30:00,
2013-04-08 08:45:00,53.5,35.8,29.82,ENE,58,6.0,8.0,51,0.00,CLR,,0.00,WeatherDisplay:10.37,2013-04-08 06:45:00,
2013-04-08 08:50:00,53.7,35.5,29.82,NE,49,6.0,8.0,50,0.00,CLR,,0.00,WeatherDisplay:10.37,2013-04-08 06:50:00,
2013-04-08 09:00:00,54.4,36.1,29.82,NE,52,5.0,8.0,50,0.00,CLR,,0.00,WeatherDisplay:10.37,2013-04-08 07:00:00,
2013-04-08 09:10:00,54.4,36.1,29.83,NE,34,5.0,7.0,50,0.00,CLR,,0.00,WeatherDisplay:10.37,2013-04-08 07:10:00,
2013-04-08 09:20:00,55.7,36.3,29.83,ENE,66,3.0,7.0,48,0.00,CLR,,0.00,WeatherDisplay:10.37,2013-04-08 07:20:00,
2013-04-08 09:30:00,56.0,36.6,29.83,NE,52,3.0,7.0,48,0.00,CLR,,0.00,WeatherDisplay:10.37,2013-04-08 07:30:00,
2013-04-08 09:40:00,56.7,36.7,29.83,East,84,2.0,6.0,47,0.00,CLR,,0.00,WeatherDisplay:10.37,2013-04-08 07:40:00,
2013-04-08 09:50:00,56.1,36.6,29.83,NE,44,1.0,5.0,48,0.00,CLR,,0.00,WeatherDisplay:10.37,2013-04-08 07:50:00,
2013-04-08 10:00:00,56.7,37.2,29.84,NE,47,3.0,5.0,48,0.00,CLR,,0.00,WeatherDisplay:10.37,2013-04-08 08:00:00,
2013-04-08 10:10:00,57.3,38.2,29.84,NE,46,1.0,6.0,49,0.00,CLR,,0.00,WeatherDisplay:10.37,2013-04-08 08:10:00,
2013-04-08 10:20:00,58.2,38.1,29.84,SE,139,2.0,5.0,47,0.00,CLR,,0.00,WeatherDisplay:10.37,2013-04-08 08:20:00,
2013-04-08 10:31:00,59.2,39.0,29.84,NNE,13,1.0,3.0,47,0.00,CLR,,0.00,WeatherDisplay:10.37,2013-04-08 08:31:00,
2013-04-08 10:40:00,58.8,39.1,29.84,SSW,201,2.0,6.0,48,0.00,CLR,,0.00,WeatherDisplay:10.37,2013-04-08 08:40:00,
2013-04-08 10:50:00,59.1,40.5,29.84,ESE,109,1.0,6.0,50,0.00,CLR,,0.00,WeatherDisplay:10.37,2013-04-08 08:50:00,
2013-04-08 11:00:00,58.1,43.0,29.84,SW,220,6.0,9.0,57,0.00,CLR,,0.00,WeatherDisplay:10.37,2013-04-08 09:00:00,
2013-04-08 11:11:00,57.3,43.1,29.84,SW,222,5.0,7.0,59,0.00,CLR,,0.00,WeatherDisplay:10.37,2013-04-08 09:11:00,
2013-04-08 11:20:00,57.1,43.3,29.85,SW,218,6.0,9.0,60,0.00,CLR,,0.00,WeatherDisplay:10.37,2013-04-08 09:20:00,
2013-04-08 11:31:00,56.3,43.0,29.85,SSW,209,7.0,10.0,61,0.00,CLR,,0.00,WeatherDisplay:10.37,2013-04-08 09:31:00,
2013-04-08 11:40:00,56.6,43.3,29.85,SSW,194,6.0,12.0,61,0.00,CLR,,0.00,WeatherDisplay:10.37,2013-04-08 09:40:00,
2013-04-08 11:51:00,57.1,42.9,29.85,SSW,196,6.0,9.0,59,0.00,CLR,,0.00,WeatherDisplay:10.37,2013-04-08 09:51:00,
2013-04-08 12:00:00,55.9,42.2,29.85,SW,220,10.0,12.0,60,0.00,CLR,,0.00,WeatherDisplay:10.37,2013-04-08 10:00:00,
2013-04-08 12:10:00,56.0,41.9,29.85,SW,216,7.0,12.0,59,0.00,CLR,,0.00,WeatherDisplay:10.37,2013-04-08 10:10:00,
2013-04-08 12:21:00,57.4,42.3,29.86,SSW,194,2.0,9.0,57,0.00,CLR,,0.00,WeatherDisplay:10.37,2013-04-08 10:21:00,
2013-04-08 12:30:00,57.3,42.6,29.86,SW,222,7.0,12.0,58,0.00,CLR,,0.00,WeatherDisplay:10.37,2013-04-08 10:30:00,
2013-04-08 12:41:00,57.5,44.1,29.86,SW,226,9.0,13.0,61,0.00,CLR,,0.00,WeatherDisplay:10.37,2013-04-08 10:41:00,
2013-04-08 12:51:00,57.3,45.2,29.86,SSW,202,3.0,8.0,64,0.00,CLR,,0.00,WeatherDisplay:10.37,2013-04-08 10:51:00,
2013-04-08 13:01:00,57.2,45.1,29.86,South,179,8.0,12.0,64,0.00,CLR,,0.00,WeatherDisplay:10.37,2013-04-08 11:01:00,
2013-04-08 13:11:00,58.4,45.4,29.86,South,186,5.0,10.0,62,0.00,CLR,,0.00,WeatherDisplay:10.37,2013-04-08 11:11:00,
2013-04-08 13:21:00,58.3,45.3,29.86,SW,215,3.0,10.0,62,0.00,CLR,,0.00,WeatherDisplay:10.37,2013-04-08 11:21:00,
2013-04-08 13:30:00,57.8,44.9,29.86,SSW,194,6.0,8.0,62,0.00,CLR,,0.00,WeatherDisplay:10.37,2013-04-08 11:30:00,
2013-04-08 13:41:00,57.3,44.4,29.86,SW,221,8.0,12.0,62,0.00,CLR,,0.00,WeatherDisplay:10.37,2013-04-08 11:41:00,
2013-04-08 13:50:00,58.0,45.4,29.86,SSW,212,5.0,12.0,63,0.00,CLR,,0.00,WeatherDisplay:10.37,2013-04-08 11:50:00,
2013-04-08 14:00:00,58.5,44.7,29.86,WSW,256,6.0,12.0,60,0.00,CLR,,0.00,WeatherDisplay:10.37,2013-04-08 12:00:00,
2013-04-08 14:11:00,58.8,44.9,29.86,SW,235,5.0,9.0,60,0.00,CLR,,0.00,WeatherDisplay:10.37,2013-04-08 12:11:00,
2013-04-08 14:21:00,58.6,45.6,29.86,WSW,239,3.0,6.0,62,0.00,CLR,,0.00,WeatherDisplay:10.37,2013-04-08 12:21:00,
2013-04-08 14:30:00,58.5,45.5,29.85,SW,231,3.0,9.0,62,0.00,CLR,,0.00,WeatherDisplay:10.37,2013-04-08 12:30:00,
2013-04-08 14:40:00,60.2,46.7,29.84,SW,226,3.0,5.0,61,0.00,CLR,,0.00,WeatherDisplay:10.37,2013-04-08 12:40:00,
2013-04-08 14:50:00,59.2,46.2,29.84,SW,224,7.0,9.0,62,0.00,CLR,,0.00,WeatherDisplay:10.37,2013-04-08 12:50:00,
2013-04-08 15:00:00,58.7,47.0,29.84,SW,221,9.0,13.0,65,0.00,CLR,,0.00,WeatherDisplay:10.37,2013-04-08 13:00:00,
2013-04-08 15:11:00,59.4,46.8,29.84,SSW,207,6.0,12.0,63,0.00,CLR,,0.00,WeatherDisplay:10.37,2013-04-08 13:11:00,
2013-04-08 15:21:00,59.0,45.6,29.84,SW,217,6.0,12.0,61,0.00,CLR,,0.00,WeatherDisplay:10.37,2013-04-08 13:21:00,
2013-04-08 15:31:00,60.0,46.0,29.84,WSW,239,6.0,10.0,60,0.00,CLR,,0.00,WeatherDisplay:10.37,2013-04-08 13:31:00,
2013-04-08 15:40:00,59.2,44.9,29.84,SW,227,7.0,10.0,59,0.00,CLR,,0.00,WeatherDisplay:10.37,2013-04-08 13:40:00,
2013-04-08 15:50:00,60.1,43.9,29.85,WSW,241,7.0,12.0,55,0.00,CLR,,0.00,WeatherDisplay:10.37,2013-04-08 13:50:00,
2013-04-08 16:01:00,58.7,46.2,29.84,SW,227,7.0,13.0,63,0.00,CLR,,0.00,WeatherDisplay:10.37,2013-04-08 14:01:00,
2013-04-08 16:11:00,58.2,45.2,29.84,WSW,243,9.0,15.0,62,0.00,CLR,,0.00,WeatherDisplay:10.37,2013-04-08 14:11:00,
2013-04-08 16:21:00,58.5,45.5,29.84,WSW,245,8.0,15.0,62,0.00,CLR,,0.00,WeatherDisplay:10.37,2013-04-08 14:21:00,
2013-04-08 16:31:00,58.4,45.4,29.85,SW,235,9.0,15.0,62,0.00,CLR,,0.00,WeatherDisplay:10.37,2013-04-08 14:31:00,
2013-04-08 16:41:00,58.2,43.9,29.84,WSW,247,8.0,17.0,59,0.00,CLR,,0.00,WeatherDisplay:10.37,2013-04-08 14:41:00,
2013-04-08 16:51:00,58.5,42.8,29.84,West,259,6.0,14.0,56,0.00,CLR,,0.00,WeatherDisplay:10.37,2013-04-08 14:51:00,
2013-04-08 17:01:00,58.7,41.6,29.84,West,262,8.0,15.0,53,0.00,CLR,,0.00,WeatherDisplay:10.37,2013-04-08 15:01:00,
2013-04-08 17:10:00,58.0,41.9,29.85,West,263,9.0,18.0,55,0.00,CLR,,0.00,WeatherDisplay:10.37,2013-04-08 15:10:00,
2013-04-08 17:21:00,57.2,41.7,29.85,West,271,9.0,15.0,56,0.00,CLR,,0.00,WeatherDisplay:10.37,2013-04-08 15:21:00,
2013-04-08 17:30:00,57.8,40.8,29.85,West,260,7.0,17.0,53,0.00,CLR,,0.00,WeatherDisplay:10.37,2013-04-08 15:30:00,
2013-04-08 17:41:00,57.9,41.3,29.85,West,277,7.0,15.0,54,0.00,CLR,,0.00,WeatherDisplay:10.37,2013-04-08 15:41:00,
2013-04-08 17:55:00,57.5,43.7,29.86,WSW,249,9.0,18.0,60,0.00,CLR,,0.00,WeatherDisplay:10.37,2013-04-08 15:55:00,
2013-04-08 18:01:00,57.4,43.6,29.87,WSW,255,8.0,18.0,60,0.00,CLR,,0.00,WeatherDisplay:10.37,2013-04-08 16:01:00,
2013-04-08 18:11:00,57.0,44.5,29.86,West,271,7.0,14.0,63,0.00,CLR,,0.00,WeatherDisplay:10.37,2013-04-08 16:11:00,
2013-04-08 18:21:00,56.9,46.1,29.86,West,261,8.0,12.0,67,0.00,CLR,,0.00,WeatherDisplay:10.37,2013-04-08 16:21:00,
2013-04-08 18:30:00,56.6,46.2,29.87,WSW,254,8.0,16.0,68,0.00,CLR,,0.00,WeatherDisplay:10.37,2013-04-08 16:30:00,
2013-04-08 18:41:00,56.4,46.4,29.87,West,275,8.0,18.0,69,0.00,CLR,,0.00,WeatherDisplay:10.37,2013-04-08 16:41:00,
2013-04-08 18:50:00,56.2,47.3,29.88,WSW,257,5.0,12.0,72,0.00,CLR,,0.00,WeatherDisplay:10.37,2013-04-08 16:50:00,
2013-04-08 19:00:00,56.0,47.5,29.88,West,260,6.0,14.0,73,0.00,CLR,,0.00,WeatherDisplay:10.37,2013-04-08 17:00:00,
2013-04-08 19:11:00,55.6,48.2,29.87,SW,234,6.0,13.0,76,0.00,CLR,,0.00,WeatherDisplay:10.37,2013-04-08 17:11:00,
2013-04-08 19:21:00,55.3,48.6,29.88,SW,230,8.0,12.0,78,0.00,CLR,,0.00,WeatherDisplay:10.37,2013-04-08 17:21:00,
2013-04-08 19:30:00,55.1,48.4,29.88,SW,234,6.0,12.0,78,0.00,CLR,,0.00,WeatherDisplay:10.37,2013-04-08 17:30:00,
2013-04-08 19:41:00,54.9,48.5,29.89,SW,235,7.0,13.0,79,0.00,CLR,,0.00,WeatherDisplay:10.37,2013-04-08 17:41:00,
2013-04-08 19:51:00,54.9,48.8,29.89,WSW,253,6.0,9.0,80,0.00,CLR,,0.00,WeatherDisplay:10.37,2013-04-08 17:51:00,
2013-04-08 20:00:00,55.0,48.9,29.89,SW,234,8.0,12.0,80,0.00,CLR,,0.00,WeatherDisplay:10.37,2013-04-08 18:00:00,
2013-04-08 20:11:00,55.0,49.3,29.90,SW,235,7.0,13.0,81,0.00,CLR,,0.00,WeatherDisplay:10.37,2013-04-08 18:11:00,
2013-04-08 20:21:00,54.7,49.3,29.90,SW,233,7.0,12.0,82,0.00,CLR,,0.00,WeatherDisplay:10.37,2013-04-08 18:21:00,
2013-04-08 20:31:00,54.8,49.4,29.90,WSW,239,6.0,13.0,82,0.00,CLR,,0.00,WeatherDisplay:10.37,2013-04-08 18:31:00,
2013-04-08 20:40:00,54.8,49.7,29.91,SW,232,5.0,9.0,83,0.00,CLR,,0.00,WeatherDisplay:10.37,2013-04-08 18:40:00,
2013-04-08 20:51:00,54.8,49.4,29.91,WSW,243,5.0,9.0,82,0.00,CLR,,0.00,WeatherDisplay:10.37,2013-04-08 18:51:00,
2013-04-08 21:01:00,54.7,49.3,29.91,SW,232,5.0,10.0,82,0.00,CLR,,0.00,WeatherDisplay:10.37,2013-04-08 19:01:00,
2013-04-08 21:11:00,54.8,49.4,29.91,SW,231,7.0,11.0,82,0.00,CLR,,0.00,WeatherDisplay:10.37,2013-04-08 19:11:00,
2013-04-08 21:21:00,54.7,49.3,29.91,WSW,246,3.0,8.0,82,0.00,CLR,,0.00,WeatherDisplay:10.37,2013-04-08 19:21:00,
2013-04-08 21:31:00,54.6,49.2,29.91,SW,231,6.0,10.0,82,0.00,CLR,,0.00,WeatherDisplay:10.37,2013-04-08 19:31:00,
2013-04-08 21:41:00,54.7,49.3,29.91,WSW,237,6.0,9.0,82,0.00,CLR,,0.00,WeatherDisplay:10.37,2013-04-08 19:41:00,
2013-04-08 21:50:00,54.6,49.5,29.92,WSW,243,5.0,10.0,83,0.00,CLR,,0.00,WeatherDisplay:10.37,2013-04-08 19:50:00,
2013-04-08 22:00:00,54.7,49.6,29.92,WSW,241,6.0,9.0,83,0.00,CLR,,0.00,WeatherDisplay:10.37,2013-04-08 20:00:00,
2013-04-08 22:10:00,54.6,49.2,29.92,SW,232,6.0,8.0,82,0.00,CLR,,0.00,WeatherDisplay:10.37,2013-04-08 20:10:00,
2013-04-08 22:21:00,54.7,49.0,29.92,WSW,239,3.0,5.0,81,0.00,CLR,,0.00,WeatherDisplay:10.37,2013-04-08 20:21:00,
2013-04-08 22:30:00,54.8,49.1,29.92,SW,215,2.0,5.0,81,0.00,CLR,,0.00,WeatherDisplay:10.37,2013-04-08 20:30:00,
2013-04-08 22:45:00,54.9,49.2,29.92,WSW,242,2.0,5.0,81,0.00,CLR,,0.00,WeatherDisplay:10.37,2013-04-08 20:45:00,
2013-04-08 22:50:00,54.8,48.7,29.92,WSW,247,6.0,7.0,80,0.00,CLR,,0.00,WeatherDisplay:10.37,2013-04-08 20:50:00,
2013-04-08 23:00:00,54.7,48.6,29.92,WSW,257,2.0,6.0,80,0.00,CLR,,0.00,WeatherDisplay:10.37,2013-04-08 21:00:00,
2013-04-08 23:10:00,54.6,48.9,29.92,WSW,253,3.0,6.0,81,0.00,CLR,,0.00,WeatherDisplay:10.37,2013-04-08 21:10:00,
2013-04-08 23:20:00,54.4,48.7,29.92,SW,235,3.0,7.0,81,0.00,CLR,,0.00,WeatherDisplay:10.37,2013-04-08 21:20:00,
2013-04-08 23:30:00,54.5,49.1,29.92,WSW,240,1.0,5.0,82,0.00,CLR,,0.00,WeatherDisplay:10.37,2013-04-08 21:30:00,
2013-04-08 23:41:00,54.6,49.5,29.92,WSW,245,3.0,7.0,83,0.00,CLR,,0.00,WeatherDisplay:10.37,2013-04-08 21:41:00,
2013-04-08 23:50:00,54.4,49.4,29.92,WSW,240,3.0,9.0,83,0.00,CLR,,0.00,WeatherDisplay:10.37,2013-04-08 21:50:00,